TimeCDT,TemperatureF,Dew PointF,Humidity,Sea Level PressureIn,VisibilityMPH,Wind Direction,Wind SpeedMPH,Gust SpeedMPH,PrecipitationIn,Events,Conditions,WindDirDegrees,DateUTC
12:53 AM,52.0,46.0,80,30.09,10.0,North,6.9,-,N/A,,Mostly Cloudy,350,2013-05-06 05:53:00
1:53 AM,51.1,45.0,80,30.09,10.0,North,6.9,-,N/A,,Mostly Cloudy,350,2013-05-06 06:53:00
2:53 AM,50.0,45.0,83,30.08,10.0,North,4.6,-,N/A,,Mostly Cloudy,350,2013-05-06 07:53:00
3:53 AM,50.0,45.0,83,30.08,10.0,Calm,Calm,-,N/A,,Partly Cloudy,0,2013-05-06 08:53:00
4:53 AM,48.9,44.1,83,30.08,10.0,North,4.6,-,N/A,,Overcast,360,2013-05-06 09:53:00
5:53 AM,48.0,43.0,83,30.10,10.0,NNW,3.5,-,N/A,,Clear,340,2013-05-06 10:53:00
6:53 AM,48.0,43.0,83,30.10,10.0,North,4.6,-,N/A,,Clear,10,2013-05-06 11:53:00
7:53 AM,52.0,43.0,71,30.11,10.0,Calm,Calm,-,N/A,,Clear,0,2013-05-06 12:53:00
8:53 AM,57.0,45.0,64,30.11,10.0,Calm,Calm,-,N/A,,Clear,0,2013-05-06 13:53:00
9:53 AM,61.0,45.0,56,30.11,10.0,North,3.5,-,N/A,,Clear,350,2013-05-06 14:53:00
10:53 AM,66.0,46.0,48,30.10,10.0,Calm,Calm,-,N/A,,Clear,0,2013-05-06 15:53:00
11:53 AM,69.1,46.0,44,30.09,10.0,Calm,Calm,-,N/A,,Clear,0,2013-05-06 16:53:00
12:53 PM,70.0,45.0,41,30.08,10.0,Calm,Calm,-,N/A,,Clear,0,2013-05-06 17:53:00
1:53 PM,72.0,44.1,37,30.06,10.0,Variable,4.6,-,N/A,,Partly Cloudy,0,2013-05-06 18:53:00
2:53 PM,73.9,44.1,34,30.05,10.0,Variable,6.9,-,N/A,,Partly Cloudy,0,2013-05-06 19:53:00
3:53 PM,73.0,45.0,37,30.03,10.0,SSW,6.9,-,N/A,,Mostly Cloudy,210,2013-05-06 20:53:00
4:53 PM,72.0,45.0,38,30.02,10.0,Calm,Calm,-,N/A,,Clear,0,2013-05-06 21:53:00
5:53 PM,73.0,44.1,35,30.02,10.0,Calm,Calm,-,N/A,,Partly Cloudy,0,2013-05-06 22:53:00
6:53 PM,73.0,45.0,37,30.01,7.0,Calm,Calm,-,N/A,,Clear,0,2013-05-06 23:53:00
7:53 PM,72.0,43.0,35,30.01,10.0,Calm,Calm,-,N/A,,Clear,0,2013-05-07 00:53:00
8:53 PM,68.0,43.0,40,30.01,10.0,Calm,Calm,-,N/A,,Clear,0,2013-05-07 01:53:00
9:53 PM,68.0,44.1,42,30.02,10.0,Calm,Calm,-,N/A,,Clear,0,2013-05-07 02:53:00
10:53 PM,64.0,45.0,50,30.03,10.0,SSE,3.5,-,N/A,,Clear,150,2013-05-07 03:53:00
11:53 PM,62.1,45.0,53,30.03,10.0,Calm,Calm,-,N/A,,Clear,0,2013-05-07 04:53:00